Regional Weather Roundup
Issued by NWS

Home | Current Version | Previous Version | Graphics & Text | Print | Product List | Glossary On
Versions: 1 2 3 4 5 6 7 8 9 10 11 12 13 14 15 16 17 18 19 20 21 22 23 24 25 26 27 28 29 30 31 32 33 34 35 36 37 38 39 40 41 42 43 44 45 46 47 48 49 50
000
ASUS43 KMPX 240301
RWRMN
WEATHER ROUNDUP FOR MINNESOTA
NATIONAL WEATHER SERVICE TWIN CITIES/CHANHASSEN MN
1000 PM CDT FRI SEP 23 2016


NOTE: "FAIR" INDICATES FEW OR NO CLOUDS BELOW 12,000 FEET WITH NO
SIGNIFICANT WEATHER AND/OR OBSTRUCTIONS TO VISIBILITY. N/A MEANS
CURRENT SKY AND/OR WEATHER CONDITIONS ARE NOT AVAILABLE.

MNZ060>063-068>070-240400-
   Twin Cities Metro

CITY           SKY/WX    TMP DP  RH WIND       PRES   REMARKS
TWIN CITIES    CLOUDY    65  60  84 SE9       30.08S
ST PAUL        CLOUDY    64  61  90 SE8       30.09S
CRYSTAL        CLOUDY    64  59  83 SE9       30.07S
BLAINE         CLOUDY    64  64 100 E5        30.09R
LAKEVILLE      CLOUDY    63  63 100 SE10G17   30.08R
EDEN PRAIRIE   CLOUDY    65  60  84 SE10      30.07R
LAKEVILLE      CLOUDY    63  63 100 SE10G17   30.08R
SOUTH ST PAUL  CLOUDY    64  62  93 SE3       30.09R
LAKE ELMO      CLOUDY    63  61  94 E7        30.11R
$$
MNZ001>005-007-008-013>017-022>024-027-028-240400-
   Northwest Minnesota

CITY           SKY/WX    TMP DP  RH WIND       PRES   REMARKS
BEMIDJI        CLOUDY    56  51  81 SE10      30.09S
HALLOCK        CLOUDY    61  50  67 E14G21    30.00F
ROSEAU         CLOUDY    59  48  67 E8        30.07F
WARROAD        DRIZZLE   57  50  77 E13G20    30.09F
THIEF RVR FALL LGT RAIN  56  54  93 E15       30.04F
CROOKSTON      DRIZZLE   55  55 100 SE13      30.01S
FOSSTON        LGT RAIN  54  52  94 SE14G21   30.03F
DETROIT LAKES  CLOUDY    59  55  88 SE16G22   30.03F
MOORHEAD       CLOUDY    63  57  82 SE14G21   29.97S
PARK RAPIDS    CLOUDY    59  51  75 E10       30.08F
MAHNOMEN       MOCLDY    59  53  80 SE18G24   30.00F
$$
MNZ006-009>011-018-025>026-240400-
   North Central Minnesota

CITY           SKY/WX    TMP DP  RH WIND       PRES   REMARKS
BAUDETTE       CLOUDY    59  47  64 SE12      30.11S
FLAG ISLAND    CLOUDY    61  45  55 E6        30.09F
INTL FALLS     CLOUDY    58  45  62 SE10      30.15F
WASKISH        PTCLDY    57  48  72 E9G20     30.10S
BIG FORK       LGT RAIN  57  46  67 SE8       30.15R
GRAND RAPIDS   LGT RAIN  56  49  77 E8        30.16R
COOK           CLOUDY    55  46  71 E7        30.18S
WALKER         CLOUDY    58  50  76 SE9       30.10F
$$
MNZ012-019>021-037-240400-
   Northeast Minnesota

CITY           SKY/WX    TMP DP  RH WIND       PRES   REMARKS
DULUTH         MOCLDY    57  54  89 E17G25    30.16F
ELY            CLOUDY    54  45  71 E6        30.21S
HIBBING        CLOUDY    54  46  74 E12       30.16F
EVELETH        CLOUDY    54  45  71 E5        30.18F
DULUTH HARBOR  CLOUDY    57  55  94 NE18      30.17F
TWO HARBORS    CLOUDY    59  54  82 E12G18    30.18F
SILVER BAY     CLOUDY    55  54  94 NE8       30.20F
GRAND MARAIS     N/A     56  51  84 NE7       30.25S
G MARAIS ARPRT CLOUDY    48  45  87 E7        30.27S
$$
MNZ029>031-032-039>041-046>048-054>057-064-240400-
   West Central Minnesota

CITY           SKY/WX    TMP DP  RH WIND       PRES   REMARKS
FERGUS FALLS   CLOUDY    63  63 100 SE14      30.01F
MORRIS         CLOUDY    64  63  94 SE15G22   29.99R
ALEXANDRIA     CLOUDY    62  61  96 SE18G25   30.05R
ELBOW LAKE     CLOUDY    62  61  96 SE15      30.01S
GLENWOOD       CLOUDY    63  61  94 SE18      30.04R
BENSON         CLOUDY    64  59  82 SE16G23   30.01S
ORTONVILLE     CLOUDY    64  61  88 SE15G24   29.96S
MADISON          N/A     68  66  94 SE15G21   29.97S
WILLMAR        CLOUDY    63  63 100 SE16      30.04S
$$
MNZ033>034-036-042>043-049>051-058-059-240400-
   Central Minnesota

CITY           SKY/WX    TMP DP  RH WIND       PRES   REMARKS
ST CLOUD       CLOUDY    61  61 100 E7        30.07R
SAUK CENTRE    CLOUDY    61  60  95 SE12      30.06R
PAYNESVILLE    CLOUDY    62  63 100 SE15G24   30.06R
AITKIN         CLOUDY    59  52  77 E5        30.11R
PINE RIVER     CLOUDY    57  52  82 E12G18    30.14S
BRAINERD       CLOUDY    59  53  80 VRB6      30.10R
STAPLES        CLOUDY    57  55  94 E7        30.07S
LONG PRAIRIE   CLOUDY    59  57  94 E7        30.07R
LITTLE FALLS   MOCLDY    59  55  88 E6        30.08R
BUFFALO        CLOUDY    63  59  87 E8        30.08R
MAPLE LAKE     CLOUDY    64  62  94 SE6       30.07S
HUTCHINSON     CLOUDY    63  62  96 E12       30.06R
$$
MNZ037-044-045-052-053-240400-
   East Central Minnesota

CITY           SKY/WX    TMP DP  RH WIND       PRES   REMARKS
PRINCETON        N/A     63  61  94 E6        30.09R
MORA           CLOUDY    55  54  94 CALM      30.13R
CAMBRIDGE      CLOUDY    64  57  77 CALM      30.08R
MOOSE LAKE     PTCLDY    55  52  88 E5        30.13R
HINCKLEY       FAIR      57  55  94 E6        30.13R
CLOQUET        CLOUDY    55  52  88 E12G21    30.15S
MCGREGOR       MOCLDY    55  52  88 E8        30.13S
$$
MNZ071>073-080-081-089-090-097-098-240400-
   Southwest Minnesota

CITY           SKY/WX    TMP DP  RH WIND       PRES   REMARKS
MONTEVIDEO     CLOUDY    64  64 100 S16       30.01S
GRANITE FALLS  CLOUDY    67  64  90 E10G17    30.01S
CANBY          CLOUDY    68  65  90 E16G25    29.97S
MARSHALL       CLOUDY    68  65  90 SE18G24   29.98S
REDWOOD FALLS  CLOUDY    67  62  84 SE13      30.01S
OLIVIA         CLOUDY    64  61  88 SE13G20   30.01S
PIPESTONE      CLOUDY    70  66  88 SE16G22   29.96S
WINDOM         CLOUDY    68  64  88 SE15G23   30.02R
WORTHINGTON    CLOUDY    69  67  93 SE14G20   30.00R
JACKSON        CLOUDY    68  64  88 SE14G21   30.03R FOG
TRACY          CLOUDY    69  67  94 SE12G21   30.00S
$$
MNZ065>067-074>077-082>085-091>093-240400-
   South Central Minnesota

CITY           SKY/WX    TMP DP  RH WIND       PRES   REMARKS
MANKATO        CLOUDY    66  62  87 SE20      30.04F
ST JAMES       CLOUDY    66  64  94 E12G18    30.04S
FAIRMONT       CLOUDY    67  65  93 SE10      30.04R
GLENCOE        CLOUDY    63  63 100 E9        30.05S
FARIBAULT      CLOUDY    64  61  88 E15       30.08S
OWATONNA       CLOUDY    64  61  88 E13G21    30.08S
WASECA         CLOUDY    63  59  88 E15G21    30.08S
ALBERT LEA     CLOUDY    66  64  94 SE14      30.08S
$$
MNZ078>079-086>088-094>096-240400-
   Southeast Minnesota

CITY           SKY/WX    TMP DP  RH WIND       PRES   REMARKS
ROCHESTER      CLOUDY    63  61  93 SE13      30.11S
RED WING       CLOUDY    66  61  82 SE16      30.08S
DODGE CENTER   CLOUDY    63  61  94 SE10      30.10R
WINONA         CLOUDY    64  59  82 SE7       30.13F
AUSTIN         CLOUDY    64  61  88 SE12      30.09S
PRESTON        CLOUDY    63  59  88 E9        30.13S
$$
ABBREVIATIONS USED IN REMARKS
   TC - TEMPERATURES IN CELSIUS
  WCI - WIND CHILL INDEX
   HX - HEAT INDEX
  VSB - VISIBILITY
$$




USA.gov is the U.S. government's official web portal to all federal, state and local government web resources and services.